Location: Unspecified
(43.4354°N, 0.0000°E)
Time: 06:42:33
(UTC+00:00)

A-11 Canister half - Pass Details

Date: 26 June 2019
Orbit: 1515 x 1685 km, 47.2° (Epoch: 15 July)

Event Time Altitude Azimuth Distance (km) Brightness Sun altitude
Rises 11:59:35 0° 269° (W) 4,895 11.6 69.9°
Reaches altitude 10° 12:02:48 10° 272° (W) 3,889 11.3 69.9°
Maximum altitude 12:12:43 71° 356° (N) 1,679 10.2 69.8°
Drops below altitude 10° 12:22:17 10° 81° (E) 3,754 11.1 69.5°
Sets 12:25:20 0° 84° (E) 4,718 11.5 69.4°
